Home > Weather > Samara > Past weeks

Flag for Russia Weather for the Past 2 Weeks in Samara, Russia

Now
19 °F

Mostly cloudy.


Feels Like: 14 °F
Forecast: 15 / 26 °F
Wind: 3 mph from Southwest

Location: Samara

Current Time: Feb 8, 2016 at 7:10:06 AM

Latest Report: Feb 8, 2016 at 6:00 AM


Visibility: N/A

Pressure: 30.27 "Hg

Humidity: 86%

Dew point: 16 °F

Location of SamaraLocation

Historic Weather in Samara — Graph

°F

Samara Temperature Yesterday

Maximum temperature yesterday: 28 °F (at 2:30 PM)
Minimum temperature yesterday: 19 °F (at 10:30 PM)
Average temperature yesterday: 24 °F

High & Low Weather Summary for the Past Weeks

 TemperatureHumidityPressure
High36 °F (Feb 1, 11:30 AM)100% (Feb 1, 9:00 PM)30.30 "Hg (Feb 1, 9:00 PM)
Low-17 °F (Jan 27, 8:00 AM)70% (Jan 26, 1:00 PM)29.45 "Hg (Feb 4, 12:30 AM)
Average17 °F88%29.97 "Hg
* Reported Jan 24 6:00 AM — Feb 8 6:00 AM, Samara, Weather by CustomWeather, © 2016

Note: Actual official high and low records may vary slightly from our data, if they occured in-between our weather recording intervals... More about our weather records

Advertising

Samara Weather History for the Previous 24 Hours

 ConditionsComfort  
Time TempWeatherWind HumidityBarometerVisibility
6:00 AM
Mon, Feb 8
19 °FMostly cloudy.3 mph86%30.27 "HgN/A
5:00 AM19 °FMostly cloudy.3 mph86%30.27 "HgN/A
4:30 AM19 °FMostly cloudy.6 mph86%30.27 "HgN/A
3:30 AM21 °FMostly cloudy.6 mph74%30.27 "HgN/A
3:00 AM19 °FMostly cloudy.6 mph79%30.27 "HgN/A
2:30 AM21 °FMostly cloudy.3 mph74%30.27 "HgN/A
2:00 AM21 °FMostly cloudy.3 mph74%30.27 "HgN/A
1:30 AM21 °FMostly cloudy.3 mph74%30.24 "HgN/A
1:00 AM21 °FMostly cloudy.3 mph74%30.24 "HgN/A
12:30 AM21 °FMostly cloudy.6 mph74%30.24 "HgN/A
12:00 AM21 °FMostly cloudy.3 mph74%30.24 "HgN/A
11:30 PM
Sun, Feb 7
21 °FPartly cloudy.6 mph74%30.24 "HgN/A
11:00 PM19 °FPartly cloudy.3 mph79%30.24 "HgN/A
10:30 PM19 °FPassing clouds.3 mph73%30.24 "HgN/A
10:00 PM21 °FPassing clouds.6 mph74%30.24 "HgN/A
9:30 PM23 °FPassing clouds.8 mph74%30.24 "HgN/A
9:00 PM25 °FMostly cloudy.10 mph74%30.21 "HgN/A
8:30 PM27 °FMostly cloudy.8 mph74%30.21 "HgN/A
8:00 PM27 °FMostly cloudy.8 mph74%30.21 "HgN/A
7:30 PM28 °FIce fog.8 mph74%30.18 "Hg3 mi
7:00 PM28 °FIce fog.8 mph80%30.18 "Hg3 mi
6:30 PM28 °FIce fog.8 mph86%30.18 "Hg3 mi
6:00 PM28 °FIce fog.8 mph86%30.18 "Hg3 mi
5:30 PM28 °FMostly cloudy.8 mph86%30.15 "Hg4 mi
5:00 PM28 °FMostly cloudy.8 mph86%30.15 "Hg4 mi
4:30 PM28 °FMostly cloudy.6 mph93%30.15 "Hg4 mi
4:00 PM28 °FMostly cloudy.10 mph93%30.12 "Hg4 mi
3:30 PM28 °FMostly cloudy.8 mph93%30.12 "Hg4 mi
3:00 PM28 °FMostly cloudy.6 mph93%30.12 "Hg4 mi
2:30 PM28 °FMostly cloudy.6 mph93%30.12 "Hg4 mi
2:00 PM27 °FMostly cloudy.6 mph100%30.12 "Hg4 mi
1:30 PM27 °FLow clouds.6 mph93%30.12 "Hg4 mi
1:00 PM27 °FSnow flurries. Mostly cloudy.3 mph93%30.12 "Hg4 mi
12:30 PM27 °FSnow flurries. Ice fog.3 mph93%30.12 "Hg3 mi
12:00 PM25 °FLight snow. Mostly cloudy.3 mph100%30.09 "Hg4 mi
11:30 AM25 °FLight snow. Overcast.3 mph93%30.09 "Hg4 mi
11:00 AM25 °FLight snow. Ice fog.3 mph93%30.09 "Hg3 mi
10:30 AM23 °FIce fog.3 mph100%30.09 "Hg3 mi
10:00 AM23 °FIce fog.3 mph93%30.07 "Hg3 mi
9:30 AM23 °FIce fog.3 mph93%30.07 "Hg3 mi
9:00 AM23 °FIce fog.3 mph93%30.07 "Hg3 mi
8:30 AM23 °FIce fog.1 mph93%30.07 "Hg3 mi
8:00 AM23 °FIce fog.1 mph93%30.04 "Hg3 mi
7:30 AM23 °FIce fog.1 mph93%30.04 "Hg1 mi
7:00 AM23 °FIce fog.1 mph93%30.04 "Hg0 mi
Weather by CustomWeather, © 2016

See weather overviewHow to use our weather pages